Location: Iesi
(43.5167°N, 13.2333°E)
Time: 05:11:00
(UTC+00:00)

Cosmos 405 Rocket - Visible Passes

Search period start: 26 November 2020 00:00
Search period end: 06 December 2020 00:00
Orbit: 489 x 554 km, 81.3° (Epoch: 25 November)

Date Brightness Start Highest point End Pass type
(mag) Time Alt. Az. Time Alt. Az. Time Alt. Az.
26 Nov 4.6 04:42:38 10° SSE 04:45:56 32° E 04:49:16 10° NNE visible
26 Nov 3.0 16:12:18 10° NNW 16:16:13 75° W 16:20:11 10° S visible
27 Nov 4.8 04:29:36 10° SSE 04:32:46 28° E 04:36:00 10° NNE visible
28 Nov 5.0 04:16:36 10° SSE 04:19:38 25° E 04:22:43 10° NE visible
29 Nov 5.2 04:03:35 10° SE 04:06:29 22° E 04:09:25 10° NE visible
29 Nov 3.7 05:39:21 10° SW 05:42:21 23° WNW 05:45:24 10° NNW visible
30 Nov 5.4 03:50:38 10° SE 03:53:20 19° E 03:56:05 10° NE visible
30 Nov 3.6 05:25:59 10° SW 05:29:08 26° WNW 05:32:21 10° NNW visible
01 Dec 5.5 03:37:42 10° SE 03:40:11 17° E 03:42:42 10° NE visible
01 Dec 3.4 05:12:38 10° SW 05:15:55 30° WNW 05:19:16 10° N visible
01 Dec 6.2 16:44:38 10° WNW 16:45:48 11° W 16:46:59 10° WSW visible
02 Dec 5.6 03:24:49 10° SE 03:27:03 15° E 03:29:18 10° NE visible
02 Dec 3.2 04:59:19 10° SW 05:02:42 33° WNW 05:06:10 10° N visible
02 Dec 6.1 16:30:55 10° WNW 16:32:41 13° W 16:34:26 10° WSW visible
03 Dec 5.8 03:12:00 10° ESE 03:13:54 14° E 03:15:50 10° NE visible
03 Dec 3.0 04:46:01 10° SW 04:49:29 38° WNW 04:53:03 10° N visible
03 Dec 5.9 16:17:22 10° NW 16:19:33 14° W 16:21:43 10° WSW visible
04 Dec 4.8 04:39:16 14° N 04:39:16 14° N 04:39:55 10° N visible
04 Dec 5.8 16:03:54 10° NW 16:06:24 16° W 16:08:55 10° SW visible
